Location: Unspecified
(30.3730°N, 0.0000°E)
Time: 03:08:03
(UTC+00:00)

PISAT - Visible Passes

Search period start: 04 April 2026 00:00
Search period end: 14 April 2026 00:00
Orbit: 643 x 686 km, 97.8° (Epoch: 29 March)

Date Brightness Start Highest point End Pass type
(mag) Time Alt. Az. Time Alt. Az. Time Alt. Az.
4 Apr ? 04:41:27 10° E 04:41:59 10° E 04:42:31 10° E visible
5 Apr ? 05:09:33 10° NE 05:13:15 25° E 05:16:58 10° SSE visible
8 Apr ? 05:05:54 10° NE 05:09:28 23° E 05:13:02 10° SSE visible
11 Apr ? 05:02:14 10° NE 05:05:39 21° E 05:09:04 10° SE visible
